Retour au catalogue

STARLINK-35366

ActifCommunicationsVLEO
NORAD 66512·PAYLOAD·🇺🇸 United States

Lancé Nov 15, 2025 depuis Cape Canaveral Space Force Station

Loading…

Prochains Passages (prochaines 24 heures)

TLE

FraisSource: CelesTrak SupGP

Époque: Sep 14, 2026, 22:54 UTC

1 66512C 25263AD  26257.95465278 -.00014535  00000+0 -52639-3 0  2570
2 66512  43.0040   1.8772 0001982 271.1194  96.8389 15.27589709    10

Suivez STARLINK-35366 en temps réel avec AllMySat

Download on the App Store